ARIANE 5 R/B, 41383

Orbit data source: Space-Track

ARIANE 5 R/B, 41383 is space debris in HEO originally from a launch on Wed, 09 Mar 2016 UTC launched from the French Guiana (FRGUI). Debris objects in space refer to the collection of defunct objects orbiting the Earth. Examples of debris include non-operational satellites, rocket bodies, and fragments generated from explosions, collisions, or faulty payload assembly.

Loading next visibility...
Identifier
41383, 2016-014B
Orbit
HEO
Country
Flag of FRFR
Related business
Manufacturer
Airbus Safran
Mission
Spacecraft
Bus & Motor
ESC-A, Unknown motor
Mass
~5,000 kg wet, ~5,000 kg dry
Launch date (UTC)
2016-03-09 (10 years ago)
Launch vehicle
Unknown
Launch site
French Guiana (FRGUI)
Object type
Payload
Rocket body
Debris
Shape & HBR
Cyl + 1 Nozzle, 3.5 m
Radar Cross Section
41.627 m², Large (>1 m²)

Expand to show TLE details & history
Last TLE update: 14 hours ago

TLE from 14 hours ago
0 ARIANE 5 R/B
1 41383U 16014B   25292.69164231  .00018774  00000-0  11074-2 0  9995
2 41383   0.4010  95.0309 6579664 168.1557  23.5942  3.24947673 94775
Epoch: 2025-10-19T16:35Z
TLE epoch observation values (Epoch: 2025-10-19T16:35:57.895Z)
Latitude
-0.37917°
Longitude
82.60516°
Altitude
5,482.831 km
Speed
6.819 km/s
True Right ascension
00h 00m 00s
True Declination
0° 22' 40"
Sunlit
Object was in full shadow at epoch
Visualization orbit readout
Latitude
Unknown
Longitude
Unknown
Altitude
Unknown
Speed
Unknown
Apparent Right ascension
Unknown
Apparent Declination
Unknown
Sunlit
N/A
Visualization observer readout
Local Sidereal Time
01:54:24
Azimuth
Unknown
Elevation
Unknown
Doppler factor
Unknown
Orbital elements
Apogee altitude
25,553.636 km
Perigee altitude
209.294 km
Semi-major axis
19,259.602 km
Eccentricity
0.65797
Inclination
0.401°
RAAN
95.0309°
Arg. of periapsis
168.1557°
True anomaly
96.75729°
Mean anomaly
23.5942°
Eccentric anomaly
54.15162°
Mean motion
0.81203 °/min
Orbital period
443.33 mins
BSTAR
0.0011074
Loading maneuver chart data...
Computing Atmospheric mass density...
Loading historical data...
Loading historical data...
Loading historical data...
Loading historical data...
Loading historical data...
Loading historical data...
Loading historical data...
Other satellites on launch #14 in the year 2016 (2016-03-09 UTC)

Documentation

Showing up to 5 results
|